[[{"header":{"parameterUnit":"m.s-1","parameterCategory":1,"la1":30.2991,"la2":30.254,"lo1":-89.0895,"lo2":-89.0444,"dy":0.0017,"dx":0.0017,"nx":28,"ny":28,"refTime":"2024-05-01T09:00:00:Z","depth":0,"parameterNumber":2,"parameterNumberName":"U-component_of_WINDS"},"data":[0,0,0,0,0,0,0,0,0,0,0,0,0,0,0,0,0,0,0,0,0,0,0,0,0,0,0,0,0,0,0,0,0,0,0,0,0,0,0,0,0,0,0,0,0,0,0,0,0,0,0,0,0,0,0,0,0,0,-0.9381,-0.9381,0,-0.9388,-0.9388,-0.9388,-0.9393,-0.9393,-0.9393,-0.9393,-0.9399,-0.94,-0.94,0,0,0,0,0,0,0,0,0,0,0,0,0,-0.9368,-0.9368,-0.9381,-0.9381,-0.9381,-0.9388,-0.9388,-0.9388,-0.9393,-0.9393,-0.9393,-0.9393,-0.9399,-0.94,-0.94,0,0,0,0,0,0,0,0,0,0,0,0,0,-0.9374,-0.9368,-0.9381,-0.9384,-0.9384,-0.9388,-0.9388,-0.9389,-0.9393,-0.9393,-0.9393,-0.9393,-0.9399,-0.94,-0.94,-0.9401,0,0,-0.9401,-0.9401,0,0,0,0,0,0,0,0,-0.9374,-0.9375,-0.9383,-0.9384,-0.9384,-0.939,-0.9386,-0.9393,-0.9393,-0.9389,-0.9393,-0.9393,-0.9396,-0.9397,-0.9398,-0.9401,-0.9402,-0.9401,-0.9401,-0.9401,-0.9401,0,0,0,0,0,0,0,-0.9373,-0.9374,-0.9384,-0.9383,-0.9384,-0.9384,-0.9385,-0.9388,-0.9392,-0.939,-0.939,-0.9391,-0.9396,-0.9398,-0.9398,-0.9402,-0.9401,-0.9401,-0.9401,-0.9401,-0.9405,-0.9405,0,0,0,0,0,0,-0.9373,-0.9374,-0.9383,-0.9384,-0.9379,-0.9384,-0.9386,-0.9388,-0.9392,-0.9393,-0.9391,-0.9391,-0.9397,-0.9398,-0.9398,-0.9399,-0.9401,-0.9401,-0.9401,-0.9406,-0.9405,-0.9405,0,0,0,0,0,0,-0.9372,-0.9374,-0.9383,-0.9379,-0.938,-0.9385,-0.9387,-0.9388,-0.9389,-0.9393,-0.9394,-0.9391,-0.9397,-0.9398,-0.94,-0.94,-0.9401,-0.9402,-0.9406,-0.9405,-0.9405,-0.9402,0,0,0,0,0,0,-0.9372,-0.9373,-0.9374,-0.9379,-0.9381,-0.9385,-0.9387,-0.9388,-0.939,-0.939,-0.9394,-0.9395,-0.9397,-0.94,-0.94,-0.94,-0.9402,-0.9406,-0.9406,-0.9405,-0.9402,-0.9402,-0.9402,0,0,0,0,0,-0.9372,-0.9373,-0.9375,-0.9376,-0.9382,-0.9385,-0.9386,-0.9389,-0.939,-0.9391,-0.9393,-0.9395,-0.94,-0.94,-0.9401,-0.9401,-0.9406,-0.9406,-0.9405,-0.9402,-0.9402,-0.9402,0,0,0,0,0,0,-0.9369,-0.9374,-0.9375,-0.9379,-0.9382,-0.9386,-0.9387,-0.9389,-0.9391,-0.9391,-0.9395,-0.9396,-0.9397,-0.9399,-0.9399,-0.9401,-0.9403,-0.9403,-0.94,-0.94,-0.94,-0.9399,-0.9402,0,0,0,0,0,-0.9368,-0.9371,-0.9375,-0.9378,-0.9379,-0.9383,-0.9384,-0.9386,-0.9389,-0.939,-0.9393,-0.9396,-0.9398,-0.9399,-0.9401,-0.9403,-0.9403,-0.9403,-0.9402,-0.9402,-0.9402,-0.9402,-0.9402,-0.9405,-0.9405,-0.9405,0,0,-0.9368,-0.9371,-0.9373,-0.9377,-0.938,-0.9382,-0.9384,-0.9386,-0.9388,-0.9391,-0.9393,-0.9395,-0.9398,-0.9399,-0.94,-0.9401,-0.9401,-0.9402,-0.9402,-0.9402,-0.9402,-0.9402,-0.9401,-0.9405,-0.9405,-0.9405,0,0,-0.9368,-0.9371,-0.9373,-0.9375,-0.9378,-0.9381,-0.9381,-0.9385,-0.9386,-0.9389,-0.9391,-0.9392,-0.9396,-0.9397,-0.9399,-0.9398,-0.9399,-0.9399,-0.9397,-0.9397,-0.9397,-0.9396,-0.9395,-0.9395,-0.9398,-0.9398,-0.9398,0,-0.9366,-0.937,-0.9373,-0.9375,-0.9377,-0.938,-0.9381,-0.9383,-0.9387,-0.9388,-0.9389,-0.9393,-0.9395,-0.9396,-0.9396,-0.9397,-0.9397,-0.9398,-0.9396,-0.9396,-0.9396,-0.9395,-0.9395,-0.9398,-0.9398,-0.9398,-0.9398,0,-0.9368,-0.937,-0.9371,-0.9375,-0.9377,-0.9378,-0.9381,-0.9382,-0.9384,-0.9386,-0.9387,-0.939,-0.9392,-0.9393,-0.9395,-0.9394,-0.9395,-0.9396,-0.9397,-0.9395,-0.9395,-0.9394,-0.9398,-0.9398,-0.9398,-0.9398,0,0,-0.9367,-0.9372,-0.9372,-0.9373,-0.9377,-0.9378,-0.938,-0.9382,-0.9382,-0.9385,-0.9385,-0.9388,-0.9389,-0.939,-0.9392,-0.9392,-0.939,-0.9393,-0.9393,-0.9392,-0.9389,-0.9388,-0.9388,-0.9391,-0.9391,-0.9391,-0.9389,0,-0.9367,-0.937,-0.9372,-0.9374,-0.9376,-0.9378,-0.9379,-0.9381,-0.9382,-0.9384,-0.9385,-0.9387,-0.9388,-0.9389,-0.9389,-0.939,-0.939,-0.9391,-0.9391,-0.9391,-0.939,-0.9387,-0.9386,-0.9384,-0.9388,-0.9388,-0.9388,0,-0.9368,-0.937,-0.9372,-0.9374,-0.9375,-0.9376,-0.9377,-0.9379,-0.938,-0.9381,-0.9383,-0.9384,-0.9385,-0.9386,-0.9387,-0.9387,-0.9388,-0.9388,-0.9388,-0.9388,-0.939,-0.9387,-0.9383,-0.9383,-0.9388,-0.9388,-0.9388,0,-0.9366,-0.9369,-0.937,-0.9371,-0.9374,-0.9375,-0.9376,-0.9378,-0.9379,-0.938,-0.938,-0.9382,-0.9382,-0.9383,-0.9385,-0.9385,-0.9385,-0.9386,-0.9385,-0.9385,-0.9385,-0.9385,-0.9381,-0.9385,-0.9385,-0.9385,-0.9385,0,-0.9366,-0.9367,-0.937,-0.937,-0.9371,-0.9373,-0.9374,-0.9375,-0.9376,-0.9377,-0.9379,-0.9379,-0.9382,-0.9382,-0.9383,-0.9383,-0.9383,-0.9384,-0.9384,-0.9383,-0.9383,-0.9383,-0.9384,-0.9385,-0.9385,-0.9385,-0.9385,0,-0.9364,-0.9366,-0.9367,-0.937,-0.937,-0.9371,-0.9373,-0.9373,-0.9374,-0.9375,-0.9375,-0.9377,-0.9377,-0.9379,-0.938,-0.9381,-0.938,-0.9381,-0.9379,-0.9379,-0.9378,-0.9378,-0.9374,-0.9373,-0.9379,-0.9379,-0.9378,0,-0.9364,-0.9364,-0.9367,-0.9367,-0.9368,-0.9369,-0.937,-0.9372,-0.9372,-0.9373,-0.9373,-0.9374,-0.9375,-0.9375,-0.9376,-0.9377,-0.9377,-0.9376,-0.9377,-0.9376,-0.9377,-0.9376,-0.9376,-0.9375,-0.9375,-0.9375,-0.9375,0,-0.9362,-0.9363,-0.9364,-0.9365,-0.9366,-0.9367,-0.9368,-0.9368,-0.937,-0.937,-0.9371,-0.9371,-0.9372,-0.9372,-0.9373,-0.9373,-0.9374,-0.9375,-0.9374,-0.9374,-0.9373,-0.9372,-0.9378,-0.9375,-0.9375,-0.9375,-0.9375,-0.9375,-0.9361,-0.9361,-0.9363,-0.9363,-0.9364,-0.9365,-0.9365,-0.9366,-0.9366,-0.9367,-0.9368,-0.9368,-0.9369,-0.937,-0.937,-0.937,-0.937,-0.937,-0.937,-0.937,-0.9369,-0.9373,-0.937,-0.937,-0.937,-0.937,-0.937,0,-0.9359,-0.936,-0.9361,-0.9362,-0.9362,-0.9363,-0.9364,-0.9364,-0.9364,-0.9365,-0.9365,-0.9365,-0.9365,-0.9366,-0.9366,-0.9365,-0.9366,-0.9365,-0.9365,-0.9365,-0.9369,-0.9369,-0.9365,-0.9365,-0.9365,-0.9365,-0.9365,-0.9365,-0.9359,-0.9359,-0.9359,-0.936,-0.936,-0.936,-0.9361,-0.9361,-0.9361,-0.9361,-0.9361,-0.9362,-0.9362,-0.9362,-0.9362,-0.9362,-0.9361,-0.9361,-0.9361,-0.9364,-0.9365,-0.9365,-0.9365,-0.9361,-0.9361,-0.9357,-0.9357,-0.9357]},{"header":{"parameterUnit":"m.s-1","parameterCategory":1,"la1":30.2991,"la2":30.254,"lo1":-89.0895,"lo2":-89.0444,"dy":0.0017,"dx":0.0017,"nx":28,"ny":28,"refTime":"2024-05-01T09:00:00:Z","depth":0,"parameterNumber":3,"parameterNumberName":"V-component_of_WINDS"},"data":[0,0,0,0,0,0,0,0,0,0,0,0,0,0,0,0,0,0,0,0,0,0,0,0,0,0,0,0,0,0,0,0,0,0,0,0,0,0,0,0,0,0,0,0,0,0,0,0,0,0,0,0,0,0,0,0,0,0,0.8949,0.895,0,0.9089,0.909,0.9092,0.9103,0.9101,0.91,0.9098,0.9239,0.9244,0.9249,0,0,0,0,0,0,0,0,0,0,0,0,0,0.8689,0.8694,0.8948,0.895,0.8952,0.9088,0.909,0.9092,0.9103,0.9101,0.9099,0.9098,0.9237,0.9243,0.925,0,0,0,0,0,0,0,0,0,0,0,0,0,0.8812,0.8695,0.8948,0.8974,0.8978,0.9088,0.909,0.9093,0.9104,0.9101,0.9099,0.9097,0.9235,0.9243,0.9251,0.9344,0,0,0.9274,0.9277,0,0,0,0,0,0,0,0,0.8805,0.8822,0.8968,0.8972,0.8977,0.9076,0.905,0.9177,0.9104,0.9056,0.9098,0.9096,0.9186,0.9198,0.9229,0.935,0.9356,0.9275,0.928,0.9283,0.9285,0,0,0,0,0,0,0,0.8797,0.8816,0.9004,0.8971,0.8976,0.8978,0.8993,0.9074,0.9132,0.906,0.9061,0.9077,0.9188,0.9222,0.9233,0.9358,0.9275,0.9281,0.9286,0.9289,0.9564,0.9566,0,0,0,0,0,0,0.8784,0.8809,0.8999,0.9008,0.8884,0.8984,0.9001,0.9046,0.9131,0.9142,0.9079,0.9077,0.921,0.9224,0.9238,0.9353,0.9283,0.929,0.9294,0.9561,0.9564,0.9567,0,0,0,0,0,0,0.8778,0.8801,0.8994,0.8909,0.8934,0.8991,0.9042,0.905,0.9084,0.9146,0.9156,0.9103,0.9208,0.9227,0.9318,0.9358,0.9294,0.9301,0.9558,0.9562,0.9566,0.9585,0,0,0,0,0,0,0.8771,0.8798,0.8835,0.891,0.8938,0.9072,0.9044,0.9055,0.9098,0.9097,0.9171,0.9181,0.9208,0.9306,0.9325,0.9368,0.9307,0.9555,0.956,0.9565,0.9581,0.9589,0.9596,0,0,0,0,0,0.8761,0.8834,0.8837,0.886,0.8985,0.9074,0.9091,0.9121,0.9101,0.9138,0.9178,0.9179,0.935,0.9315,0.9337,0.9382,0.9552,0.9558,0.9564,0.9577,0.9587,0.9596,0,0,0,0,0,0,0.8761,0.8844,0.8848,0.8947,0.9004,0.9076,0.9124,0.913,0.9193,0.919,0.9224,0.924,0.933,0.9365,0.9325,0.9477,0.9449,0.946,0.9452,0.9462,0.9469,0.9459,0.9313,0,0,0,0,0,0.8773,0.8839,0.8908,0.8988,0.9017,0.9065,0.9105,0.9124,0.9184,0.9207,0.9254,0.9311,0.9378,0.9422,0.9487,0.9585,0.9602,0.9627,0.9635,0.9641,0.965,0.9705,0.9718,0.9587,0.9587,0.9587,0,0,0.8797,0.8851,0.889,0.899,0.9036,0.9104,0.9085,0.9157,0.9208,0.9218,0.9308,0.9344,0.941,0.9505,0.955,0.9537,0.9689,0.9648,0.9653,0.9659,0.9713,0.9725,0.9736,0.9591,0.959,0.959,0,0,0.8877,0.8924,0.8997,0.9044,0.9114,0.9146,0.9164,0.9236,0.926,0.9351,0.936,0.942,0.9534,0.9582,0.9621,0.9719,0.9722,0.9739,0.9778,0.9832,0.9843,0.9852,0.9888,0.99,0.9747,0.9747,0.9747,0,0.8898,0.9001,0.9033,0.9106,0.915,0.9163,0.9237,0.9281,0.9368,0.9398,0.9383,0.9528,0.9573,0.968,0.9704,0.9735,0.9756,0.9731,0.9839,0.9848,0.9858,0.9892,0.9905,0.9749,0.9749,0.9749,0.9749,0,0.9025,0.9096,0.9147,0.9233,0.9282,0.9355,0.9397,0.9443,0.9457,0.9491,0.9583,0.9637,0.9714,0.9741,0.9755,0.9851,0.9841,0.9832,0.9804,0.9871,0.9904,0.9918,0.9751,0.9751,0.975,0.975,0,0,0.9108,0.9212,0.923,0.9269,0.9348,0.9404,0.9477,0.9554,0.9593,0.9653,0.9715,0.9812,0.9805,0.9849,0.9868,0.9916,0.9991,0.9901,0.9903,0.9917,1.0101,1.0108,1.0123,0.9994,0.9996,0.9998,1.0095,0,0.9197,0.933,0.9361,0.9475,0.9541,0.9555,0.9619,0.9674,0.9708,0.9769,0.9804,0.9873,0.9858,0.9885,0.9932,0.9972,1.0029,0.9965,1.0052,1.0055,1.0036,1.014,1.0147,1.0236,1.0108,1.0111,1.0112,0,0.9319,0.9384,0.9504,0.9576,0.9605,0.9662,0.9735,0.9793,0.9856,0.9877,0.9927,0.9942,1.0018,0.9986,1.0092,1.0048,1.0086,1.0111,1.0115,1.0125,1.0088,1.0153,1.0265,1.0279,1.0133,1.0131,1.013,0,0.937,0.9486,0.9574,0.9607,0.9692,0.9732,0.977,0.983,0.9874,0.9938,0.9967,1.0037,1.0076,1.0131,1.0164,1.0137,1.0268,1.0238,1.0287,1.0286,1.0315,1.0313,1.0435,1.0337,1.0337,1.0336,1.0336,0,0.9467,0.954,0.9598,0.9652,0.9735,0.9769,0.985,0.9887,0.9941,1.0002,1.0017,1.0074,1.0114,1.0176,1.0203,1.0287,1.0304,1.0323,1.0329,1.0322,1.032,1.0348,1.0343,1.034,1.0339,1.0339,1.0338,0,0.9537,0.9579,0.9675,0.9749,0.9769,0.9826,0.9889,0.9941,0.9975,1.0052,1.0072,1.0125,1.0199,1.0237,1.0329,1.0347,1.0442,1.0444,1.0422,1.0424,1.0472,1.0467,1.0617,1.0639,1.0525,1.0526,1.0527,0,0.9597,0.9654,0.9734,0.9777,0.9815,0.9883,0.9929,0.9965,1.0012,1.0088,1.0131,1.0207,1.0269,1.0386,1.0432,1.0503,1.0507,1.0555,1.0518,1.0509,1.0509,1.0506,1.0512,1.0562,1.0563,1.0564,1.0564,0,0.9699,0.9717,0.9783,0.9856,0.9911,0.997,1.0028,1.0062,1.0107,1.0159,1.0236,1.0284,1.0379,1.0453,1.0528,1.0565,1.0573,1.0576,1.0591,1.0585,1.057,1.058,1.0441,1.0572,1.0571,1.0571,1.057,1.057,0.9767,0.9819,0.9883,0.9956,1.0004,1.0059,1.0113,1.0153,1.0218,1.0299,1.0316,1.0397,1.0459,1.056,1.0599,1.0663,1.0653,1.0675,1.068,1.0685,1.0688,1.0559,1.0676,1.0676,1.0676,1.0676,1.0675,0,0.987,0.9913,0.998,1.0062,1.012,1.0123,1.0187,1.0235,1.0307,1.0364,1.0426,1.0514,1.0586,1.0638,1.0712,1.0753,1.0758,1.0771,1.0769,1.0777,1.0692,1.0672,1.0765,1.0765,1.0765,1.0765,1.0765,1.0765,0.9931,1.002,1.0046,1.0158,1.02,1.0281,1.0318,1.0368,1.0414,1.0513,1.0573,1.0607,1.0662,1.074,1.0807,1.082,1.0846,1.0859,1.0873,1.0793,1.0783,1.0774,1.0756,1.0865,1.0865,1.0953,1.0954,1.0954]}]]